Miscellaneous Local Product
Issued by NWS North Platte, NE

Home | Current Version | Previous Version | Text Only | Print | Product List | Glossary On
Versions: 1 2 3 4 5 6 7 8 9 10 11 12 13 14 15 16 17 18 19 20 21 22 23 24 25 26 27 28 29 30 31 32 33 34 35 36 37 38 39 40 41 42 43 44 45 46 47 48 49 50
931
AXUS43 KLBF 182210
MISLBF


WESTERN AND NORTH CENTRAL NEBRASKA HOURLY WEATHER ROUNDUP
NATIONAL WEATHER SERVICE NORTH PLATTE NE
400 PM CST THU JAN 18 2018

NOTE: "FAIR" INDICATES FEW OR NO CLOUDS BELOW 12,000 FEET WITH NO
SIGNIFICANT WEATHER AND/OR OBSTRUCTIONS TO VISIBILITY.

NOTE: STATIONS NOT REPORTING VARIABLES SUCH AS SKY/WEATHER OR
PRESSURE ARE PROVIDED BY RAWS AND APRS NETWORKS AND ARE NOT UNDER
NATIONAL WEATHER SERVICE QUALITY CONTROL.

...OBSERVATIONS IN AND NEAR THE EASTERN PANHANDLE OF NEBRASKA...

CITY           SKY/WX    TMP DP  RH WIND       PRES   REMARKS
PINE RIDGE     PTSUNNY   51  30  44 W7        29.85S
GORDON         FAIR      49  31  49 W10       29.85R
CHADRON        PTSUNNY   54  31  41 SW5       29.85S
ALLIANCE       PTSUNNY   45  33  63 SW6       29.88F
SIDNEY         CLOUDY    60  23  24 MISG      29.93F
CRESCENT LAKE    N/A     52  30  43 W6          N/A
$$

...OBSERVATIONS IN NORTHERN NEBRASKA AND FAR SOUTHERN SOUTH DAKOTA...

CITY           SKY/WX    TMP DP  RH WIND       PRES   REMARKS
WINNER         FAIR      46  31  55 SW10      29.81F
VALENTINE      CLOUDY    48  33  56 SW6       29.83F
AINSWORTH      CLOUDY    44  33  64 W6        29.85S
O`NEILL        CLOUDY    40  32  71 SW3       29.85R
THEDFORD       CLOUDY    47  32  56 W6        29.89S
BROKEN BOW     CLOUDY    42  31  64 SW3       29.88S
ORD            CLOUDY    46  30  53 SW6       29.86F
ALBION         CLOUDY    46  32  57 SW5       29.86S
VALENTINE NWR    N/A     48  28  45 W6          N/A
HALSEY           N/A     48  28  45 W6          N/A
BUTTE            N/A     39  30  71 SW5         N/A
CHAMBERS         N/A     41  27  57 W3          N/A
EWING            N/A     42  31  64 SW5         N/A
$$

...OBSERVATIONS IN SOUTHWEST NEBRASKA AND FAR NORTHEAST COLORADO...

CITY           SKY/WX    TMP DP  RH WIND       PRES   REMARKS
WRAY           FAIR      64  14  14 CALM      29.94S
HOLYOKE        FAIR      61  21  21 W6        29.93F
IMPERIAL       CLOUDY    55  28  35 S3        29.92F
OGALLALA       CLOUDY    48  31  50 CALM      29.91S
NORTH PLATTE   CLOUDY    47  30  51 W6        29.90F
MCCOOK         CLOUDY    51  27  39 W6        29.92F
LEXINGTON      CLOUDY    45  33  62 CALM      29.91S
STAPLETON        N/A     44  33  65 CALM        N/A
GOTHENBURG       N/A     49  28  44 CALM        N/A
CALLAWAY         N/A     43  32  65 W8          N/A
$$

...OBSERVATIONS IN CENTRAL LINCOLN COUNTY AREA...

CITY           SKY/WX    TMP DP  RH WIND       PRES   REMARKS
N.P. AIRPORT   CLOUDY    47  30  51 W6        29.90F
N.P. DOWNTOWN    N/A     46  32  59 CALM        N/A
N.P. SOUTHEAST   N/A     47  31  53 CALM        N/A
N.P. HILLCREST   N/A     45  33  62 CALM        N/A
$$

...SOME OBSERVATIONS FROM AROUND THE REGION...

CITY           SKY/WX    TMP DP  RH WIND       PRES   REMARKS
DENVER         PTSUNNY   63   5  10 CALM      29.97F
BERTHOUD PASS  FAIR      25  12  58 NW21      30.30F WCI  10
GRAND JUNCTION SUNNY     47  15  27 VRB5      30.20F
LARAMIE        PTSUNNY   50  19  29 SW20      30.05F
CHEYENNE       MOSUNNY   58  20  22 W20       29.98F
CASPER         LGT RAIN  49  24  37 SW38G46   29.94F
BISMARCK       CLOUDY    38  28  67 S5        29.70F WCI  34
RAPID CITY     CLOUDY    62  30  29 SE6       29.78F
PIERRE         CLOUDY    43  28  55 CALM      29.78
SIOUX FALLS    CLOUDY    39  30  70 W3        29.83R
OMAHA          CLOUDY    34  21  59 S16       29.93F WCI  24
GRAND ISLAND   CLOUDY    42  31  64 SW13      29.90F
SCOTTSBLUFF    PTSUNNY   48  31  51 NW7       29.90F
KANSAS CITY    PTSUNNY   38  22  52 S13       30.08F WCI  30
HILL CITY      CLOUDY    63  17  17 SW9       29.94F
WICHITA        CLOUDY    52  20  28 S18       30.08F
DODGE CITY     CLOUDY    59  15  18 SW13      30.01F
OKLAHOMA CITY  MOSUNNY   49   8  19 S18G26    30.21F
DALLAS         PTSUNNY   47  12  24 S12       30.34F
AMARILLO       SUNNY     57  10  15 S12       30.10F
$$




USA.gov is the U.S. government's official web portal to all federal, state and local government web resources and services.